Showing default

PATHFINDER 1, 41787

Orbit data source: Space-Track

PATHFINDER 1, 41787 is a payload satellite owned by BlackSky Global (US) in SSO that was launched on Mon, 26 Sep 2016 UTC via a PSLV launch vehicle from the Sirharikota (SRI). Payload-class satellites include a variety of spacecraft equipped with specific instruments for various scientific and technological missions. These include communications satellites like Starlink; space stations such as the ISS; scientific satellites like the Hubble; Earth observation satellites from companies like Planet Labs, Umbra, and HawkEye 360; GPS; miniature CubeSats for education and research; and military/defense satellites.

Loading next visibility...
Identifier
41787, 2016-059E
Orbit
SSO
Country
Flag of USUS
Related business
Manufacturer
Spaceflight Ind
Mission
Operational Commercial Imaging
Bus & Motor
BSKY, Unknown motor
Mass
~44 kg wet, 44 kg dry
Launch date (UTC)
2016-09-26 (9 years ago)
Launch vehicle
PSLV
Launch site
Sirharikota (SRI)
Object type
Payload
Rocket body
Debris
Shape & HBR
Box, 0.5 m
Radar Cross Section
1.000 m², Medium (>0.1 m² and < 1m²)

Expand to show TLE details & history
Last TLE update: 21 hours ago

TLE from 21 hours ago
0 PATHFINDER 1
1 41787U 16059E   25261.27091317  .00000772  00000-0  14505-3 0  9998
2 41787  97.8159 268.0043 0028598 356.3591   3.7402 14.67082787479832
Epoch: 2025-09-18T06:30Z
TLE epoch observation values (Epoch: 2025-09-18T06:30:06.897Z)
Latitude
-0°
Longitude
173.04065°
Altitude
653.284 km
Speed
7.542 km/s
True Right ascension
17h 52m 01s
True Declination
0° 00' 00"
Sunlit
Object was in daylight at epoch
Visualization orbit readout
Latitude
Unknown
Longitude
Unknown
Altitude
Unknown
Speed
Unknown
Apparent Right ascension
Unknown
Apparent Declination
Unknown
Sunlit
N/A
Visualization observer readout
Local Sidereal Time
20:48:47
Azimuth
Unknown
Elevation
Unknown
Doppler factor
Unknown
Orbital elements
Apogee altitude
687.6 km
Perigee altitude
647.302 km
Semi-major axis
7,045.588 km
Eccentricity
0.00286
Inclination
97.8159°
RAAN
268.0043°
Arg. of periapsis
356.3591°
True anomaly
3.76165°
Mean anomaly
3.7402°
Eccentric anomaly
3.75092°
Mean motion
3.67001 °/min
Orbital period
98.09 mins
BSTAR
0.00014505
Loading maneuver chart data...
Computing Atmospheric mass density...
Loading historical data...
Loading historical data...
Loading historical data...
Loading historical data...
Loading historical data...
Loading historical data...
Loading historical data...

Documentation

Showing up to 5 results
|